Météo par heure à Julianowo

Ce jour, 17 Juin, Jeudi

Heure Température Précipitation Vent Pression Humidité
00:00 +12°C° 0 mm 3 m/s 757 mmHg 90%
01:00 +11°C° 0 mm 3 m/s 757 mmHg 89%
02:00 +11°C° 0 mm 3 m/s 757 mmHg 88%
03:00 +11°C° 0 mm 3 m/s 756 mmHg 87%
04:00 +11°C° 0 mm 3 m/s 756 mmHg 87%
05:00 +13°C° 0 mm 3 m/s 756 mmHg 80%
06:00 +17°C° 0 mm 2 m/s 757 mmHg 74%
07:00 +19°C° 0 mm 2 m/s 757 mmHg 67%
08:00 +20°C° 0 mm 3 m/s 757 mmHg 64%
09:00 +22°C° 0 mm 3 m/s 757 mmHg 60%
10:00 +23°C° 0 mm 4 m/s 757 mmHg 56%
11:00 +25°C° 0 mm 4 m/s 757 mmHg 55%
12:00 +26°C° 0 mm 4 m/s 757 mmHg 53%
13:00 +26°C° 0 mm 4 m/s 757 mmHg 52%
14:00 +26°C° 0 mm 4 m/s 757 mmHg 53%
15:00 +26°C° 0 mm 4 m/s 757 mmHg 55%
16:00 +26°C° 0 mm 3 m/s 756 mmHg 56%
17:00 +25°C° 0 mm 3 m/s 756 mmHg 62%
18:00 +24°C° 0 mm 3 m/s 756 mmHg 68%
19:00 +21°C° 0 mm 3 m/s 756 mmHg 74%
20:00 +20°C° 0 mm 3 m/s 757 mmHg 74%
21:00 +18°C° 0 mm 3 m/s 757 mmHg 75%
22:00 +17°C° 0 mm 3 m/s 757 mmHg 75%
23:00 +17°C° 0 mm 3 m/s 757 mmHg 77%

Demain, 18 Juin, Vendredi

Heure Température Précipitation Vent Pression Humidité
00:00 +16°C° 0 mm 3 m/s 757 mmHg 79%
01:00 +16°C° 0 mm 3 m/s 757 mmHg 81%
02:00 +14°C° 0 mm 3 m/s 757 mmHg 84%
03:00 +14°C° 0 mm 3 m/s 757 mmHg 86%
04:00 +14°C° 0 mm 3 m/s 757 mmHg 88%
05:00 +17°C° 0 mm 3 m/s 757 mmHg 82%
06:00 +19°C° 0 mm 4 m/s 757 mmHg 76%
07:00 +21°C° 0 mm 4 m/s 757 mmHg 71%
08:00 +22°C° 0 mm 4 m/s 756 mmHg 67%
09:00 +25°C° 0 mm 4 m/s 756 mmHg 63%
10:00 +26°C° 0 mm 5 m/s 756 mmHg 60%
11:00 +27°C° 0 mm 5 m/s 756 mmHg 58%
12:00 +28°C° 0 mm 5 m/s 756 mmHg 56%
13:00 +29°C° 0 mm 5 m/s 756 mmHg 54%
14:00 +29°C° 0 mm 5 m/s 755 mmHg 56%
15:00 +29°C° 0 mm 5 m/s 755 mmHg 57%
16:00 +29°C° 0 mm 4 m/s 755 mmHg 59%
17:00 +28°C° 0 mm 4 m/s 755 mmHg 65%
18:00 +26°C° 0 mm 3 m/s 755 mmHg 70%
19:00 +25°C° 0 mm 3 m/s 755 mmHg 76%
20:00 +24°C° 0 mm 3 m/s 755 mmHg 78%
21:00 +22°C° 0 mm 4 m/s 755 mmHg 79%
22:00 +21°C° 0 mm 4 m/s 755 mmHg 81%
23:00 +20°C° 0 mm 4 m/s 755 mmHg 83%

Après-demain, 19 Juin, Samedi

Heure Température Précipitation Vent Pression Humidité
00:00 +19°C° 0 mm 3 m/s 755 mmHg 84%
01:00 +18°C° 0 mm 3 m/s 755 mmHg 86%
02:00 +18°C° 0 mm 3 m/s 755 mmHg 87%
03:00 +18°C° 0 mm 3 m/s 755 mmHg 89%
04:00 +18°C° 0 mm 3 m/s 755 mmHg 91%
05:00 +19°C° 0 mm 3 m/s 755 mmHg 86%
06:00 +21°C° 0 mm 4 m/s 755 mmHg 81%
07:00 +23°C° 0 mm 4 m/s 755 mmHg 76%
08:00 +25°C° 0 mm 5 m/s 755 mmHg 71%
09:00 +26°C° 0 mm 5 m/s 755 mmHg 66%
10:00 +28°C° 0 mm 5 m/s 755 mmHg 62%
11:00 +28°C° 0 mm 5 m/s 754 mmHg 59%
12:00 +29°C° 0 mm 5 m/s 754 mmHg 57%
13:00 +30°C° 0 mm 5 m/s 754 mmHg 54%
14:00 +30°C° 0 mm 5 m/s 754 mmHg 56%
15:00 +30°C° 0 mm 4 m/s 754 mmHg 57%
16:00 +30°C° 0 mm 4 m/s 753 mmHg 59%
17:00 +29°C° 0 mm 3 m/s 753 mmHg 65%
18:00 +28°C° 0 mm 3 m/s 753 mmHg 70%
19:00 +26°C° 0 mm 3 m/s 753 mmHg 76%
20:00 +25°C° 0 mm 3 m/s 753 mmHg 78%
21:00 +24°C° 0 mm 3 m/s 753 mmHg 79%
22:00 +22°C° 0 mm 3 m/s 753 mmHg 80%
23:00 +21°C° 0 mm 3 m/s 753 mmHg 83%

20 Juin, Dimanche

Heure Température Précipitation Vent Pression Humidité
00:00 +21°C° 0 mm 3 m/s 753 mmHg 86%
01:00 +20°C° 0 mm 3 m/s 753 mmHg 88%
02:00 +20°C° 0 mm 3 m/s 753 mmHg 89%
03:00 +19°C° 0 mm 3 m/s 753 mmHg 90%
04:00 +19°C° 0 mm 3 m/s 753 mmHg 91%
05:00 +21°C° 0 mm 3 m/s 753 mmHg 86%
06:00 +22°C° 0 mm 4 m/s 753 mmHg 80%
07:00 +25°C° 0 mm 4 m/s 753 mmHg 75%
08:00 +26°C° 0 mm 4 m/s 753 mmHg 70%
09:00 +27°C° 0 mm 4 m/s 753 mmHg 65%
10:00 +28°C° 0 mm 4 m/s 753 mmHg 60%
11:00 +29°C° 0 mm 5 m/s 753 mmHg 58%
12:00 +29°C° 0 mm 5 m/s 752 mmHg 55%
13:00 +30°C° 0 mm 5 m/s 752 mmHg 53%
14:00 +29°C° 0 mm 5 m/s 752 mmHg 56%
15:00 +29°C° 0 mm 4 m/s 751 mmHg 58%
16:00 +29°C° 0 mm 4 m/s 751 mmHg 61%
17:00 +28°C° 0 mm 4 m/s 751 mmHg 66%
18:00 +26°C° 0 mm 3 m/s 751 mmHg 72%
19:00 +25°C° 0 mm 3 m/s 751 mmHg 77%
20:00 +24°C° 0 mm 3 m/s 751 mmHg 79%
21:00 +22°C° 0 mm 3 m/s 751 mmHg 81%
22:00 +21°C° 0 mm 4 m/s 751 mmHg 84%
23:00 +21°C° 0 mm 3 m/s 750 mmHg 84%

21 Juin, Lundi

Heure Température Précipitation Vent Pression Humidité
00:00 +20°C° 0 mm 3 m/s 750 mmHg 85%
01:00 +20°C° 0 mm 3 m/s 750 mmHg 86%
02:00 +20°C° 0 mm 4 m/s 750 mmHg 88%
03:00 +20°C° 0 mm 4 m/s 750 mmHg 90%
04:00 +19°C° 0 mm 4 m/s 750 mmHg 91%
05:00 +21°C° 0 mm 4 m/s 750 mmHg 86%
06:00 +22°C° 0 mm 5 m/s 749 mmHg 81%
07:00 +24°C° 0 mm 6 m/s 749 mmHg 76%
08:00 +26°C° 0 mm 6 m/s 749 mmHg 70%
09:00 +27°C° 0 mm 6 m/s 749 mmHg 65%
10:00 +29°C° 0 mm 7 m/s 749 mmHg 60%
11:00 +29°C° 0 mm 6 m/s 749 mmHg 57%
12:00 +30°C° 0 mm 6 m/s 749 mmHg 54%
13:00 +30°C° 0 mm 6 m/s 749 mmHg 51%
14:00 +30°C° 0 mm 6 m/s 749 mmHg 53%
15:00 +30°C° 0 mm 5 m/s 748 mmHg 55%
16:00 +30°C° 0 mm 5 m/s 748 mmHg 56%
17:00 +29°C° 0.1 mm 4 m/s 748 mmHg 62%
18:00 +27°C° 0.1 mm 4 m/s 748 mmHg 69%
19:00 +26°C° 0.1 mm 4 m/s 748 mmHg 75%
20:00 +25°C° 0.1 mm 3 m/s 748 mmHg 78%
21:00 +24°C° 0.1 mm 3 m/s 748 mmHg 81%
22:00 +21°C° 0.1 mm 3 m/s 748 mmHg 84%
23:00 +21°C° 0 mm 3 m/s 748 mmHg 85%

22 Juin, Mardi

Heure Température Précipitation Vent Pression Humidité
00:00 +20°C° 0 mm 3 m/s 748 mmHg 87%
01:00 +20°C° 0 mm 3 m/s 748 mmHg 88%
02:00 +20°C° 0 mm 3 m/s 748 mmHg 89%
03:00 +19°C° 0 mm 3 m/s 747 mmHg 90%
04:00 +19°C° 0 mm 3 m/s 747 mmHg 90%
05:00 +21°C° 0 mm 3 m/s 747 mmHg 86%
06:00 +22°C° 0 mm 3 m/s 747 mmHg 81%
07:00 +25°C° 0 mm 4 m/s 747 mmHg 76%
08:00 +26°C° 0 mm 4 m/s 747 mmHg 70%
09:00 +27°C° 0 mm 4 m/s 747 mmHg 65%
10:00 +29°C° 0 mm 4 m/s 747 mmHg 60%
11:00 +29°C° 0.1 mm 4 m/s 747 mmHg 58%
12:00 +30°C° 0.1 mm 4 m/s 747 mmHg 56%
13:00 +32°C° 0.1 mm 4 m/s 747 mmHg 54%
14:00 +29°C° 0.3 mm 4 m/s 747 mmHg 62%
15:00 +28°C° 0.3 mm 4 m/s 747 mmHg 69%
16:00 +26°C° 0.3 mm 4 m/s 747 mmHg 77%
17:00 +25°C° 1.8 mm 4 m/s 747 mmHg 80%
18:00 +23°C° 1.8 mm 4 m/s 748 mmHg 84%
19:00 +24°C° 1.8 mm 3 m/s 748 mmHg 87%
20:00 +21°C° 0.9 mm 3 m/s 749 mmHg 90%
21:00 +20°C° 0.9 mm 3 m/s 749 mmHg 93%
22:00 +19°C° 0.9 mm 3 m/s 750 mmHg 95%
23:00 +18°C° 0 mm 3 m/s 750 mmHg 95%
Voir plus

Nous avons besoin de votre consentement

Meteoprog et ses fournisseurs de services peuvent stocker et accéder à des données personnelles telles que des cookies, des identifiants d'appareils ou d'autres technologies similaires sur votre appareil et traiter ces données pour personnaliser le contenu et les publicités, ainsi que pour fournir des fonctionnalités de médias sociaux et analyser le trafic.

  • Stocker et/ou accéder à des informations sur votre appareil

    Des cookies, des identifiants d'appareils ou d'autres informations peuvent être stockés ou accessibles sur votre appareil aux fins indiquées ci-dessus.

  • Annonces et contenus personnalisés, mesure des annonces et des contenus, connaissance de l'audience et développement de produits

    Les annonces et le contenu peuvent être personnalisés en fonction d'un profil. D'autres données peuvent être ajoutées pour mieux personnaliser les annonces et le contenu. Les performances des publicités et du contenu peuvent être mesurées. Il est possible d'obtenir des informations sur le public qui a vu les publicités et le contenu. Ces données peuvent être utilisées pour développer ou améliorer l'expérience de l'utilisateur, les systèmes et les logiciels.

En cliquant sur "J'accepte", vous autorisez l'utilisation de cookies, des identifiants d'appareils, des balises web ou d'autres technologies similaires. Vos paramètres peuvent être modifiés dans le navigateur de votre appareil.

Dans certains cas, des intérêts légitimes peuvent être invoqués plutôt qu'un consentement. Vous pouvez en savoir plus à ce sujet dans notre Politique de confidentialité et de cookies.